1310947226759,18.6851
1310947286759,18.6647
1310947346759,18.6335
1310947406759,18.6674
1310947466759,18.6876
1310947526759,18.6336
1310947586759,18.6849
1310947646759,18.7253
1310947706759,18.6792
1310947766759,18.6676
1310947826759,18.6549
1310947886759,18.6916
1310947946759,18.6609
1310948006759,18.6749
1310948066759,18.6612
1310948126759,18.6667
1310948186759,18.7166
1310948246759,18.7217
1310948306759,18.7297
1310948366759,18.6544
1310948426759,18.6801
1310948486759,18.6920
1310948546759,18.6983
1310948606759,18.7105
1310948666759,18.7167
1310948726759,18.7036
1310948786759,18.7171
1310948846759,18.6887
1310948906759,18.6672
1310948966759,18.6708
1310949026759,18.6906
1310949086759,18.6948
1310949146759,18.6981
1310949206759,18.7058
1310949266759,18.7445
1310949326759,18.7409
1310949386759,18.7039
1310949446759,18.7129
1310949506759,18.6466
1310949566759,18.6830
1310949626759,18.6837
1310949686759,18.7095
1310949746759,18.6870
1310949806759,18.6924
1310949866759,18.7086
1310949926759,18.7352
1310949986759,18.6450
1310950046759,18.6976
1310950106759,19.4041
1310950166759,18.6664
1310950226759,18.6884
1310950286759,18.6282
1310950346759,18.6309
1310950406759,18.6063
1310950466759,18.7105
1310950526759,18.6068
1310950586759,18.6946
1310950646759,18.6676
1310950706759,18.6794
1310950766759,18.6199
1310950826769,18.6476
1310950886769,18.6769
1310950946769,18.7187
1310951006769,18.6222
1310951066769,18.6708
1310951126769,18.6517
1310951186769,18.6914
1310951246769,18.7063
1310951306769,18.6145
1310951366769,18.6651
1310951426769,18.6566
1310951486769,18.6828
1310951546769,18.6686
1310951606769,18.6774
1310951666769,18.6947
1310951726769,18.7040
1310951786769,18.6811
1310951846769,18.6425
1310951906769,18.6388
1310951966769,18.6282
1310952026769,18.5934
1310952086769,18.6164
1310952146769,18.5764
1310952206769,18.6665
1310952266769,18.5854
1310952326769,18.6057
1310952386769,18.6288
1310952446769,18.6061
1310952506769,18.5762
1310952566769,18.6104
1310952626769,18.6861
1310952686769,18.6085
1310952746769,18.6505
1310952806769,18.6367
1310952866769,18.6317
1310952926769,18.5777
1310952986769,18.6235
1310953046769,18.6408
1310953106769,18.6049
1310953166769,18.6133
1310953226769,18.5448
1310953286769,18.6329
1310953346769,18.6073
1310953406769,18.6233
1310953466769,18.6112
1310953526769,18.6630
1310953586769,18.6433
1310953646769,18.6649
1310953706769,18.7146
1310953766769,18.6623
1310953826769,18.7122
1310953886769,18.6844
1310953946769,18.6804
1310954006769,18.6534
1310954066769,18.7088
1310954126769,18.7473
1310954186769,18.6686
1310954246769,18.6941
1310954306769,18.6915
1310954366769,18.7208
1310954426778,18.6793
1310954486778,18.6456
1310954546778,18.6753
1310954606778,18.7368
1310954666778,18.6934
1310954726778,18.7037
1310954786778,18.6748
1310954846778,18.6615
1310954906778,18.6927
1310954966778,18.6768
1310955026778,18.7089
1310955086778,18.7362
1310955146778,18.6553
1310955206778,18.6960
1310955266778,18.7210
1310955326778,18.7038
1310955386778,18.6977
1310955446778,18.7093
1310955506778,18.7092
1310955566778,18.7295
1310955626778,18.7347
1310955686778,18.7182
1310955746778,18.6891
1310955806778,18.7120
1310955866778,18.7241
1310955926778,18.6989
1310955986778,18.7044
1310956046778,18.7496
1310956106778,18.7437
1310956166778,18.7743
1310956226778,18.7012
1310956286778,18.6883
1310956346778,18.7311
1310956406778,18.6976
1310956466778,18.6689
1310956526778,18.6941
1310956586778,18.7314
1310956646778,18.7174
1310956706778,18.6914
1310956766778,18.5946
1310956826778,18.6502
1310956886778,18.6893
1310956946778,18.6736
1310957006778,18.6255
1310957066778,18.6160
1310957126778,18.6552
1310957186778,18.6194
1310957246778,18.6403
1310957306778,18.6323
1310957366778,18.6530
1310957426778,18.6328
1310957486778,18.6233
1310957546778,18.6461
1310957606778,18.6696
1310957666778,18.6707
1310957726778,18.6448
1310957786778,18.6636
1310957846778,18.6713
1310957906778,18.6882
1310957966778,18.6818
1310958026788,18.7052
1310958086788,18.6973
1310958146788,18.7381
1310958206788,18.6743
1310958266788,18.7156
1310958326788,18.7111
1310958386788,18.7159
1310958446788,18.7224
1310958506788,18.7073
1310958566788,18.7599
1310958626788,18.7138
1310958686788,18.6978
1310958746788,18.6855
1310958806788,18.7216
1310958866788,18.7457
1310958926788,18.7280
1310958986788,18.7762
1310959046788,18.7820
1310959106788,18.7268
1310959166788,18.6941
1310959226788,18.6936
1310959286788,18.6588
1310959346788,18.6773
1310959406788,18.6819
1310959466788,18.7073
1310959526788,18.7392
1310959586788,18.6514
1310959646788,18.6273
1310959706788,18.6244
1310959766788,18.6414
1310959826788,18.6396
1310959886788,18.6489
1310959946788,18.6211
1310960006788,18.6379
1310960066788,18.6167
1310960126788,18.6972
1310960186788,18.6649
1310960246788,18.6020
1310960306788,18.6279
1310960366788,18.5890
1310960426788,18.6255
1310960486788,18.6247
1310960546788,18.6257
1310960606788,18.6659
1310960666788,18.6351
1310960726788,18.6332
1310960786788,18.6179
1310960846788,18.5824
1310960906788,18.5942
1310960966788,18.6251
1310961026788,18.6726
1310961086788,18.6276
1310961146788,18.5779
1310961206788,18.6399
1310961266788,18.6005
1310961326788,18.6330
1310961386788,18.6480
1310961446788,18.6282
1310961506788,18.6711
1310961566788,18.6560
1310961626797,18.6682
1310961686797,18.7185
1310961746797,18.6505
1310961806797,18.6094
1310961866797,18.6172
1310961926797,18.6422
1310961986797,18.6626
1310962046797,18.6239
1310962106797,18.5862
1310962166797,18.6559
1310962226797,18.6134
1310962286797,18.6387
1310962346797,18.6341
1310962406797,18.6778
1310962466797,18.6584
1310962526797,18.6927
1310962586797,18.6478
1310962646797,18.6217
1310962706797,18.6266
1310962766797,18.6601
1310962826797,18.6907
1310962886797,18.6736
1310962946797,18.6386
1310963006797,18.6953
1310963066797,18.6662
1310963126797,18.6460
1310963186797,18.7070
1310963246797,18.6014
1310963306797,18.6414
1310963366797,18.6439
1310963426797,18.6278
1310963486797,18.6097
1310963546797,18.6043
1310963606797,18.5835
1310963666797,18.6805
1310963726797,18.5946
1310963786797,18.5905
1310963846797,18.6141
1310963906797,18.6451
1310963966797,18.6542
1310964026797,18.5736
1310964086797,18.5883
1310964146797,18.5653
1310964206797,18.6072
1310964266797,18.5647
1310964326797,18.5645
1310964386797,18.5477
1310964446797,18.5817
1310964506797,18.6184
1310964566797,18.5723
1310964626797,18.5777
1310964686797,18.5530
1310964746797,18.5852
1310964806797,18.6050
1310964866797,18.6204
1310964926797,18.5679
1310964986797,18.6166
1310965046797,18.6486
1310965106797,18.6341
1310965166797,18.6162
1310965226806,18.6491
1310965286806,18.6064
1310965346806,18.6116
1310965406806,18.6200
1310965466806,18.6728
1310965526806,18.6494
1310965586806,18.6593
1310965646806,18.6084
1310965706806,18.6089
1310965766806,18.6081
1310965826806,18.6731
1310965886806,18.7132
1310965946806,18.6568
1310966006806,18.6630
1310966066806,18.7262
1310966126806,18.7349
1310966186806,18.6797
1310966246806,18.7200
1310966306806,18.6813
1310966366806,18.6854
1310966426806,18.6124
1310966486806,18.6196
1310966546806,18.6037
1310966606806,18.6185
1310966666806,18.5676
1310966726806,18.6213
1310966786806,18.5805
1310966846806,18.5723
1310966906806,18.5860
1310966966806,18.6019
1310967026806,18.6325
1310967086806,18.6100
1310967146806,18.6266
1310967206806,18.6317
1310967266806,18.5881
1310967326806,18.5874
1310967386806,18.5746
1310967446806,18.5616
1310967506806,18.6242
1310967566806,18.5863
1310967626806,18.5864
1310967686806,18.5471
1310967746806,18.5638
1310967806806,18.6074
1310967866806,18.5777
1310967926806,18.6273
1310967986806,18.6503
1310968046806,18.6165
1310968106806,18.6125
1310968166806,18.6056
1310968226806,18.6329
1310968286806,18.6180
1310968346806,18.6453
1310968406806,18.7060
1310968466806,18.6666
1310968526806,18.6863
1310968586806,18.6494
1310968646806,18.6609
1310968706806,18.6276
1310968766806,18.6626
1310968826815,18.6208
1310968886815,18.7054
1310968946815,18.6587
1310969006815,18.6855
1310969066815,18.6262
1310969126815,18.6041
1310969186815,18.6805
1310969246815,18.6375
1310969306815,18.6518
1310969366815,18.7193
1310969426815,18.6398
1310969486815,18.6279
1310969546815,18.6025
1310969606815,18.6926
1310969666815,18.6760
1310969726815,18.6620
1310969786815,18.6711
1310969846815,18.6106
1310969906815,18.6659
1310969966815,18.6729
1310970026815,18.6542
1310970086815,18.7058
1310970146815,18.6816
1310970206815,18.6661
1310970266815,18.6307
1310970326815,18.6481
1310970386815,18.6581
1310970446815,18.6698
1310970506815,18.6481
1310970566815,18.6534
1310970626815,18.6844
1310970686815,18.6495
1310970746815,18.6370
1310970806815,18.6428
1310970866815,18.6847
1310970926815,18.6917
1310970986815,18.7280
1310971046815,18.7260
1310971106815,18.7121
1310971166815,18.7400
1310971226815,18.7092
1310971286815,18.6929
1310971346815,18.6905
1310971406815,18.7380
1310971466815,18.7326
1310971526815,18.7675
1310971586815,18.7198
1310971646815,18.7446
1310971706815,18.7937
1310971766815,18.7643
1310971826815,18.7613
1310971886815,18.7645
1310971946815,18.8273
1310972006815,18.7110
1310972066815,18.7819
1310972126815,18.6991
1310972186815,18.8167
1310972246815,18.7349
1310972306815,18.7702
1310972366815,18.7130
1310972426824,18.6975
1310972486825,18.7051
1310972546825,18.6901
1310972606825,18.6670
1310972666825,18.7048
1310972726825,18.6459
1310972786825,18.6766
1310972846825,18.7119
1310972906825,18.7114
1310972966825,18.7058
1310973026825,18.7170
1310973086825,18.7300
1310973146825,18.6827
1310973206825,18.6841
1310973266825,18.7016
1310973326825,18.6754
1310973386825,18.7009
1310973446825,18.6632
1310973506825,18.6552
1310973566824,18.6091
1310973626824,18.6458
1310973686824,18.7357
1310973746824,18.6256
1310973806824,18.6656
1310973866825,18.5991
1310973926825,18.6119
1310973986825,18.6908
1310974046825,18.6611
1310974106825,18.6848
1310974166825,18.7061
1310974226825,18.6888
1310974286825,18.6249
1310974346825,18.7020
1310974406825,18.6581
1310974466825,18.6898
1310974526825,18.6303
1310974586825,18.6990
1310974646825,18.6698
1310974706825,18.6955
1310974766825,18.6898
1310974826825,18.6743
1310974886825,18.6845
1310974946824,18.7241
1310975006824,18.7063
1310975066824,18.6405
1310975126824,18.6969
1310975186825,18.6820
1310975246825,18.6658
1310975306825,18.6764
1310975366825,18.6713
1310975426825,18.6978
1310975486825,18.6760
1310975546825,18.6798
1310975606825,18.6731
1310975666825,18.7034
1310975726825,18.6797
1310975786825,18.6715
1310975846825,18.6796
1310975906825,18.6929
1310975966825,18.6836
1310976026834,18.7057
1310976086834,18.6897
1310976146834,18.6502
1310976206834,18.6534
1310976266834,18.6942
1310976326834,18.6832
1310976386834,18.6732
1310976446834,18.6730
1310976506834,18.6597
1310976566834,18.6487
1310976626834,18.6715
1310976686834,18.6631
1310976746834,18.5952
1310976806834,18.6354
1310976866834,18.6392
1310976926834,18.6681
1310976986834,18.6809
1310977046834,18.6772
1310977106834,18.6712
1310977166834,18.6206
1310977226834,18.6424
1310977286834,18.6327
1310977346834,18.6249
1310977406834,18.6523
1310977466834,18.6342
1310977526834,18.6198
1310977586834,18.6850
1310977646834,18.6306
1310977706834,18.6596
1310977766834,18.6667
1310977826834,18.6352
1310977886834,18.6523
1310977946834,18.6164
1310978006834,18.6458
1310978066834,18.6164
1310978126834,18.6141
1310978186834,18.6387
1310978246834,18.7125
1310978306834,18.6453
1310978366834,18.6488
1310978426834,18.7156
1310978486834,18.6931
1310978546834,18.6925
1310978606834,18.6602
1310978666834,18.6898
1310978726834,18.6808
1310978786834,18.6929
1310978846834,18.6970
1310978906834,18.6702
1310978966834,18.6587
1310979026834,18.7177
1310979086834,18.6939
1310979146834,18.6630
1310979206834,18.6678
1310979266834,18.7485
1310979326834,18.6430
1310979386834,18.7154
1310979446834,18.6914
1310979506834,18.7025
1310979566834,18.7137
1310979626843,18.6691
1310979686843,18.7145
1310979746843,18.6911
1310979806843,18.6561
1310979866843,18.6537
1310979926843,18.6638
1310979986843,18.6365
1310980046843,18.6311
1310980106843,18.7146
1310980166843,18.7146
1310980226843,18.7209
1310980286843,18.6792
1310980346843,18.7310
1310980406843,18.7471
1310980466843,18.7396
1310980526843,18.7272
1310980586843,18.6912
1310980646843,18.7198
1310980706843,18.7106
1310980766843,18.6941
1310980826843,18.6412
1310980886843,18.6890
1310980946843,18.7275
1310981006843,18.6889
1310981066843,18.8214
1310981126843,18.7834
1310981186843,18.7106
1310981246843,18.7292
1310981306843,18.7337
1310981366843,18.7148
1310981426843,18.7046
1310981486843,18.6895
1310981546843,18.7186
1310981606843,18.7144
1310981666843,18.7145
1310981726843,18.7158
1310981786843,18.7294
1310981846843,18.7451
1310981906843,18.7096
1310981966843,18.7505
1310982026843,18.7394
1310982086843,18.7278
1310982146843,18.7175
1310982206843,18.7062
1310982266843,18.7330
1310982326843,18.7807
1310982386843,18.7760
1310982446843,18.7937
1310982506843,18.8278
1310982566843,18.7953
1310982626843,18.8432
1310982686843,18.8203
1310982746843,18.8573
1310982806843,18.7988
1310982866843,18.8667
1310982926843,18.8295
1310982986843,18.7903
1310983046843,18.8249
1310983106843,18.8102
1310983166843,18.8150
1310983226852,18.8058
1310983286852,18.8371
1310983346852,18.8488
1310983406852,18.7921
1310983466852,18.7825
1310983526852,18.8554
1310983586852,18.8149
1310983646852,18.7702
1310983706852,18.7949
1310983766852,18.8070
1310983826852,18.8017
1310983886852,18.7865
1310983946852,18.7630
1310984006852,18.7340
1310984066852,18.7912
1310984126852,18.7711
1310984186852,18.7720
1310984246852,18.7887
1310984306852,18.8222
1310984366852,18.7889
1310984426852,18.7991
1310984486852,18.8279
1310984546852,18.8650
1310984606852,18.8964
1310984666852,18.8678
1310984726852,18.8605
1310984786852,18.8739
1310984846852,18.8161
1310984906852,18.8982
1310984966852,18.8797
1310985026852,18.8708
1310985086852,18.8663
1310985146852,18.9072
1310985206852,18.8268
1310985266852,18.8486
1310985326852,18.8121
1310985386852,18.8107
1310985446852,18.8548
1310985506852,18.8722
1310985566852,18.8451
1310985626852,18.8722
1310985686852,18.8514
1310985746852,18.7854
1310985806852,18.8952
1310985866852,18.8306
1310985926852,18.8342
1310985986852,18.7910
1310986046852,18.7072
1310986106852,18.7612
1310986166852,18.7623
1310986226852,18.8342
1310986286852,18.8112
1310986346852,18.8406
1310986406852,18.8330
1310986466852,18.8022
1310986526852,18.8374
1310986586852,18.8555
1310986646852,18.8514
1310986706852,18.8523
1310986766852,18.8970
1310986826861,18.8293
1310986886861,18.8092
1310986946861,18.8333
1310987006861,18.8547
1310987066861,18.7784
1310987126861,18.8188
1310987186861,18.7583
1310987246861,18.7812
1310987306861,18.8429
1310987366861,18.7856
1310987426861,18.8154
1310987486861,18.7595
1310987546861,18.8066
1310987606861,18.8306
1310987666861,18.8449
1310987726861,18.8797
1310987786861,18.8305
1310987846861,18.7984
1310987906861,18.8504
1310987966861,18.8513
1310988026861,18.7944
1310988086861,18.8194
1310988146861,18.8147
1310988206861,18.8317
1310988266861,18.8303
1310988326861,18.8747
1310988386861,18.8237
1310988446861,18.8590
1310988506861,18.7596
1310988566861,18.7778
1310988626861,18.7323
1310988686861,18.7957
1310988746861,18.8400
1310988806861,18.7987
1310988866861,18.8626
1310988926861,18.8262
1310988986861,18.8553
1310989046861,18.8489
1310989106861,18.8802
1310989166861,18.8487
1310989226861,18.8796
1310989286861,18.8511
1310989346861,18.8811
1310989406861,18.8225
1310989466861,18.8724
1310989526861,18.8460
1310989586861,18.8263
1310989646861,18.8311
1310989706861,18.7911
1310989766861,18.8461
1310989826861,18.8231
1310989886861,18.8598
1310989946861,18.8277
1310990006861,18.8545
1310990066861,18.8660
1310990126861,18.8718
1310990186861,18.9021
1310990246861,18.8575
1310990306861,18.8448
1310990366861,18.8307
1310990426870,18.7834
1310990486870,18.8143
1310990546870,18.7945
1310990606870,18.8639
1310990666870,18.8375
1310990726870,18.8251
1310990786870,18.7727
1310990846870,18.8538
1310990906870,18.8023
1310990966870,18.8146
1310991026870,18.8159
1310991086870,18.8013
1310991146870,18.8135
1310991206870,19.0033
1310991266870,18.7994
1310991326870,18.8237
1310991386870,18.7729
1310991446870,18.8033
1310991506870,18.7868
1310991566870,18.7764
1310991626870,18.8522
1310991686870,18.8031
1310991746870,18.8143
1310991806870,18.8142
1310991866870,18.7901
1310991926870,18.8112
1310991986870,18.8248
1310992046870,18.8259
1310992106870,18.8005
1310992166870,18.8539
1310992226870,18.7933
1310992286870,18.8616
1310992346870,18.8698
1310992406870,18.7468
1310992466870,18.8381
1310992526870,18.8971
1310992586870,18.8163
1310992646870,18.8530
1310992706870,18.7892
1310992766870,18.8507
1310992826870,18.8016
1310992886870,18.8027
1310992946870,18.8751
1310993006870,18.8894
1310993066870,18.8856
1310993126870,18.8846
1310993186870,18.8507
1310993246870,18.8267
1310993306870,18.7487
1310993366870,18.8268
1310993426870,18.8786
1310993486870,18.8923
1310993546870,18.8651
1310993606870,18.8583
1310993666870,18.8250
1310993726870,18.8652
1310993786870,18.8799
1310993846870,18.8341
1310993906870,18.7999
1310993966870,18.8544
1310994026879,18.7862
1310994086879,18.8302
1310994146879,18.7819
1310994206879,18.7631
1310994266879,18.8234
1310994326879,18.8002
1310994386879,18.7920
1310994446879,18.8135
1310994506879,18.7824
1310994566879,18.7875
1310994626879,18.8593
1310994686879,18.8173
1310995226879,18.8797
1310995286879,18.7957
1310995346879,18.8455
1310995406879,18.8440
1310995466879,18.8529
1310995526879,18.7617
1310995586879,18.8307
1310995646879,18.8464
1310995706879,18.8200
1310995766879,18.8077
1310995826879,18.8156
1310995886879,18.7669
1310995946879,18.8406
1310996006879,18.7791
1310996066879,18.7448
1310996126879,18.7902
1310996186879,18.7544
1310996246879,18.7719
1310996306879,18.7670
1310996366879,18.8164
1310996426879,18.8101
1310996486879,18.7594
1310996546879,18.8241
1310996606879,18.8170
1310996666879,18.8681
1310996726879,18.8359
1310996786879,18.8603
1310996846879,18.8654
1310996906879,18.8784
1310996966879,18.8510
1310997026879,18.9106
1310997086879,18.9196
1310997146879,18.8687
1310997206879,18.8143
1310997266879,18.8282
1310997326879,18.8274
1310997386879,18.8185
1310997446879,18.8068
1310997506879,18.7874
1310997566879,18.8502
1310997626888,18.8430
1310997686888,18.8736
1310997746888,18.8038
1310997806888,18.7985
1310997866888,18.8325
1310997926888,18.8362
1310997986888,18.7955
1310998046888,18.8041
1310998106888,18.7612
1310998166888,18.7561
1310998226888,18.7383
1310998286888,18.8146
1310998346888,18.7849
1310998406888,18.8179
1310998466888,18.8052
1310998526888,18.8025
1310998586888,18.8117
1310998646888,18.8379
1310998706888,18.7793
1310998766888,18.7752
1310998826888,18.8063
1310998886888,18.8278
1310998946888,18.8462
1310999006888,18.8340
1310999066888,18.8115
1310999126888,18.8073
1310999186888,18.7755
1310999246888,18.8094
1310999306888,18.7853
1310999366888,18.8237
1310999426888,18.8042
1310999486888,18.7889
1310999546888,18.8335
1310999606888,18.7450
1310999666888,18.7909
1310999726888,18.8097
1310999786888,18.8134
1310999846888,18.7986
1310999906888,18.7985
1310999966888,18.8251
1311000026888,18.8774
1311000086888,18.8773
1311000146888,18.8190
1311000206888,18.8408
1311000266888,18.8043
1311000326888,18.7477
1311000386888,18.7445
1311000446888,18.8045
1311000506888,18.7745
1311000566888,18.7593
1311000626888,18.7692
1311000686888,18.7987
1311000746888,18.8248
1311000806888,18.7595
1311000866888,18.8125
1311000926888,18.7840
1311000986888,18.8311
1311001046888,18.7964
1311001106888,18.7848
1311001166888,18.8119
1311001226897,18.8261
1311001286897,18.8266
1311001346897,18.8001
1311001406897,18.7758
1311001466897,18.8057
1311001526897,18.7693
1311001586897,18.8299
1311001646897,18.8241
1311001706897,18.8229
1311001766897,18.8217
1311001826897,18.8166
1311001886897,18.8539
1311001946897,18.8087
1311002006897,18.8189
1311002066897,18.8076
1311002126897,18.8598
1311002186897,18.7496
1311002246897,18.7898
1311002306897,18.7824
1311002366897,18.7595
1311002426897,18.8137
1311002486897,18.8180
1311002546897,18.8066
1311002606897,18.7950
1311002666897,18.7826
1311002726897,18.7590
1311002786897,18.8023
1311002846897,18.7785
1311002906897,18.7077
1311002966897,18.7398
1311003026897,18.7335
1311003086897,18.7276
1311003146897,18.7250
1311003206897,18.7127
1311003266897,18.7418
1311003326897,18.7218
1311003386897,18.7457
1311003446897,18.7919
1311003506897,18.7701
1311003566897,18.8078
1311003626897,18.7958
1311003686897,18.8068
1311003746897,18.7749
1311003806897,18.7422
1311003866897,18.7605
1311003926897,18.7831
1311003986897,18.7300
1311004046897,18.7347
1311004106897,18.7820
1311004166897,18.7626
1311004226897,18.7581
1311004286897,18.7560
1311004346897,18.7295
1311004406897,18.7885
1311004466897,18.7781
1311004526897,18.7567
1311004586897,18.7510
1311004646897,18.7955
1311004706897,18.7872
1311004766897,18.8175
1311004826907,18.7782
1311004886907,18.7620
1311004946907,18.7624
1311005006907,18.7568
1311005066907,18.7699
1311005126907,18.7974
1311005186907,18.7906
1311005246907,18.7294
1311005306907,18.7910
1311005366907,18.8488
1311005426907,18.8220
1311005486907,18.8684
1311005546907,18.8997
1311005606907,18.7824
1311005666907,18.8579
1311005726907,18.8210
1311005786907,18.7920
1311005846907,18.8241
1311005906907,18.7815
1311005966907,18.8686
1311006026907,18.7878
1311006086907,18.7618
1311006146907,18.8112
1311006206907,18.8254
1311006266907,18.8229
1311006326907,18.7873
1311006386907,18.7746
1311006446907,18.7557
1311006506907,18.8197
1311006566907,18.8081
1311006626907,18.8159
1311006686907,18.7971
1311006746907,18.7627
1311006806907,18.7782
1311006866907,18.7346
1311006926907,18.8210
1311006986907,18.8286
1311007046907,18.8188
1311007106907,18.8229
1311007166907,18.8814
1311007226907,18.8441
1311007286907,18.8338
1311007346907,18.8381
1311007406907,18.7992
1311007466907,18.8003
1311007526907,18.8277
1311007586907,18.8378
1311007646907,18.9018
1311007706907,18.8390
1311007766907,18.8653
1311007826907,18.9442
1311007886907,18.8925
1311007946907,18.8903
1311008006907,18.9071
1311008066907,18.8431
1311008126907,18.8403
1311008186907,18.8353
1311008246907,18.8466
1311008306907,18.8423
1311008366907,18.8116
1311008426917,18.8134
1311008486917,18.8426
1311008546917,18.8734
1311008606917,18.7949
1311008666917,18.8240
1311008726917,18.8213
1311008786917,18.7525
1311008846917,18.8225
1311008906917,18.7904
1311008966917,18.8175
1311009026917,18.8403
1311009086917,18.8430
1311009146917,18.8202
1311009206917,18.8595
1311009266917,18.8633
1311009326917,18.8488
1311009386917,18.8151
1311009446917,18.7830
1311009506917,18.8071
1311009566917,18.8009
1311009626917,18.8112
1311009686917,18.7627
1311009746917,18.7829
1311009806917,18.8517
1311009866917,18.8045
1311009926917,18.8201
1311009986917,18.7899
1311010046917,18.8016
1311010106917,18.7884
1311010166917,18.8440
1311010226917,18.8184
1311010286917,18.7589
1311010346917,18.8047
1311010406917,18.7903
1311010466917,18.7739
1311010526917,18.7279
1311010586917,18.8023
1311010646917,18.7544
1311010706917,18.7878
1311010766917,18.7596
1311010826917,18.8141
1311010886917,18.8154
1311010946917,18.7707
1311011006917,18.6935
1311011066917,18.7430
1311011126917,18.7550
1311011186917,18.7500
1311011246917,18.7609
1311011306917,18.7836
1311011366917,18.7244
1311011426917,18.7332
1311011486917,18.7493
1311011546917,18.7918
1311011606917,18.7607
1311011666917,18.8025
1311011726917,18.7528
1311011786917,18.7581
1311011846917,18.7557
1311011906917,18.7531
1311011966917,18.7607
1311012026927,18.7955
1311012086927,18.7649
1311012146927,18.8039
1311012206927,18.7823
1311012266927,18.7872
1311012326927,18.7521
1311012386927,18.7696
1311012446927,18.7726
1311012506927,18.7570
1311012566927,18.7981
1311012626927,18.7936
1311012686927,18.8001
1311012746927,18.8250
1311012806927,18.8641
1311012866927,18.8140
1311012926927,18.7694
1311012986927,18.8168
1311013046927,18.7916